Regional Weather Roundup
Issued by NWS Charleston, WV

Home | Current Version | Previous Version | Graphics & Text | Print | Product List | Glossary On
Versions: 1 2 3 4 5 6 7 8 9 10 11 12 13 14 15 16 17 18 19 20 21 22 23 24 25 26 27 28 29 30 31 32 33 34 35 36 37 38 39 40 41 42 43 44 45 46 47 48 49 50
000
ASUS41 KRLX 221410
RWRRLX
West Virginia Regional Weather Roundup
National Weather Service Charleston WV
1000 AM EDT SUN APR 22 2018

Note: "fair" indicates few or no clouds below 12,000 feet with no
significant weather and/or obstructions to visibility.

WVZ003-221500-
Northern Panhandle of West Virginia

CITY           SKY/WX    TMP DP  RH WIND       PRES   REMARKS
WHEELING       FAIR      53  28  38 NE8       30.32S
$$

WVZ009-221500-
Northwest West Virginia

CITY           SKY/WX    TMP DP  RH WIND       PRES   REMARKS
PARKERSBURG    FAIR      53  28  38 N3        30.33S
$$

WVZ006-221500-
Western West Virginia

CITY           SKY/WX    TMP DP  RH WIND       PRES   REMARKS
HUNTINGTON     FAIR      52  28  39 NE6       30.28S
$$

WVZ015-221500-
West Central West Virginia

CITY           SKY/WX    TMP DP  RH WIND       PRES   REMARKS
CHARLESTON     CLOUDY    55  28  35 CALM      30.28S
$$

WVZ022-031-221500-
North Central West Virginia

CITY           SKY/WX    TMP DP  RH WIND       PRES   REMARKS
CLARKSBURG     FAIR      57  33  40 CALM      30.30S
MORGANTOWN     FAIR      57  29  34 NE7       30.32R
$$

WVZ025-035-042-045-221500-
Southern West Virginia

CITY           SKY/WX    TMP DP  RH WIND       PRES   REMARKS
BECKLEY        FAIR      58  34  40 SE5       30.29F
LOGAN          FAIR      61  32  33 CALM      30.27S
BLUEFIELD      FAIR      55  29  36 VRB3      30.30F
LEWISBURG      FAIR      54  34  47 CALM      30.31F
$$

WVZ047-221500-
Northern Mountains of West Virginia

CITY           SKY/WX    TMP DP  RH WIND       PRES   REMARKS
ELKINS         FAIR      51  31  46 CALM      30.31S
$$

WVZ052-221500-
Eastern Panhandle of West Virginia

CITY           SKY/WX    TMP DP  RH WIND       PRES   REMARKS
MARTINSBURG    FAIR      56  35  45 E5        30.37F
PETERSBURG     FAIR      50  35  56 CALM      30.36S
$$



USA.gov is the U.S. government's official web portal to all federal, state and local government web resources and services.